Location: Montbazon
(47.2835°N, 0.6999°E)
Time: 07:24:43
(UTC+00:00)

Cosmos 1943 Rocket - Pass Details

Date: 08 November 2025
Orbit: 812 x 841 km, 71.0° (Epoch: 13 December)

Event Time Altitude Azimuth Distance (km) Brightness Sun altitude
Exits shadow 05:48:02 - 321° (NW) 2,685 4.4 -11.0°
Reaches altitude 10° 05:48:47 10° 318° (NW) 2,421 4.1 -10.9°
Maximum altitude 05:53:46 36° 254° (WSW) 1,275 2.7 -10.0°
Drops below altitude 10° 05:58:43 10° 189° (S) 2,395 4.6 -9.2°
Sets 06:01:17 0° 181° (S) 3,321 5.5 -8.8°
